Route Details

Aircraft Information
Group: North America Fleet
Types: B738, B752, B762, B763
Route Data
Distance: 731nm
Duration: 2h 35m
Origin METAR: KBDL 010451Z 02004KT 10SM FEW050 BKN140 BKN190 M04/M12 A3026 RMK AO2 SLP248 T10391122 400391044
Dest. METAR: KRFD 010454Z 19004KT 10SM CLR M18/M22 A3037 RMK AO2 SLP303 T11831222
Freight Data
(for Feb 1, 2023)
Load Factor:
75%
Manifested Cargo: 62,878lbs
Financial History
Total Freight: 125,520lbs
Average Load: 0lbs/flt
Fuel Used: 33,791lbs
Avg. Fuel Used: 0lbs/flt
Fuel Expense: $9,153
Avg. Fuel Expense: $0
Avg. Fuel Cost: $0/lbs
Total Gross Income: $298,774
Pilot Pay: $158
Total Expenses: $46,185
Total Revenue: $242,985
Average Revenue: $0

Capitol Logistics 453




KBDL
Bradley International Airport
Windsor Locks, Connecticut
KRFD
Chicago/Rockford International Airport
Rockford, Illinois

Activity Log

Date Flight Route Aircraft Duration
07/10/2022 CPX453 CTR HNK JHW CRL J554 GIJ DPA B738 2h 04m
10/03/2021 CPX7346 CTR CAM Q822 FNT VIO OBK KRENA RFD B763 2h 25m